Year,Month,Day,Hour,Minute,Value (Times are PST for temperature in C)
2017,05,06,00,00,6.10
2017,05,06,00,01,6.10
2017,05,06,00,02,6.10
2017,05,06,00,03,6.10
2017,05,06,00,04,6.10
2017,05,06,00,05,6.10
2017,05,06,00,06,6.10
2017,05,06,00,07,6.10
2017,05,06,00,08,6.00
2017,05,06,00,09,6.00
2017,05,06,00,10,6.00
2017,05,06,00,11,6.00
2017,05,06,00,12,6.00
2017,05,06,00,13,6.00
2017,05,06,00,14,6.00
2017,05,06,00,15,6.00
2017,05,06,00,16,6.00
2017,05,06,00,17,6.00
2017,05,06,00,18,6.00
2017,05,06,00,19,6.00
2017,05,06,00,20,6.00
2017,05,06,00,21,6.00
2017,05,06,00,22,6.00
2017,05,06,00,23,6.00
2017,05,06,00,24,6.00
2017,05,06,00,25,6.10
2017,05,06,00,26,6.10
2017,05,06,00,27,6.10
2017,05,06,00,28,6.10
2017,05,06,00,29,6.10
2017,05,06,00,30,6.10
2017,05,06,00,31,6.10
2017,05,06,00,32,6.10
2017,05,06,00,33,6.10
2017,05,06,00,34,6.10
2017,05,06,00,35,6.10
2017,05,06,00,36,6.10
2017,05,06,00,37,6.10
2017,05,06,00,38,6.10
2017,05,06,00,39,6.10
2017,05,06,00,40,6.10
2017,05,06,00,41,6.10
2017,05,06,00,42,6.10
2017,05,06,00,43,6.10
2017,05,06,00,44,6.10
2017,05,06,00,45,6.10
2017,05,06,00,46,6.10
2017,05,06,00,47,6.10
2017,05,06,00,48,6.10
2017,05,06,00,49,6.10
2017,05,06,00,50,6.10
2017,05,06,00,51,6.10
2017,05,06,00,52,6.10
2017,05,06,00,53,6.10
2017,05,06,00,54,6.10
2017,05,06,00,55,6.10
2017,05,06,00,56,6.10
2017,05,06,00,57,6.10
2017,05,06,00,58,6.10
2017,05,06,00,59,6.10
2017,05,06,01,00,6.10
2017,05,06,01,01,6.10
2017,05,06,01,02,6.10
2017,05,06,01,03,6.10
2017,05,06,01,04,6.10
2017,05,06,01,05,6.10
2017,05,06,01,06,6.10
2017,05,06,01,07,6.10
2017,05,06,01,08,6.10
2017,05,06,01,09,6.10
2017,05,06,01,10,6.10
2017,05,06,01,11,6.00
2017,05,06,01,12,6.00
2017,05,06,01,13,6.00
2017,05,06,01,14,6.00
2017,05,06,01,15,6.00
2017,05,06,01,16,6.00
2017,05,06,01,17,6.00
2017,05,06,01,18,6.00
2017,05,06,01,19,6.00
2017,05,06,01,20,5.90
2017,05,06,01,21,5.90
2017,05,06,01,22,5.90
2017,05,06,01,23,5.90
2017,05,06,01,24,5.90
2017,05,06,01,25,5.90
2017,05,06,01,26,5.90
2017,05,06,01,27,5.90
2017,05,06,01,28,5.90
2017,05,06,01,29,5.90
2017,05,06,01,30,5.90
2017,05,06,01,31,5.80
2017,05,06,01,32,5.80
2017,05,06,01,33,5.80
2017,05,06,01,34,5.80
2017,05,06,01,35,5.80
2017,05,06,01,36,5.80
2017,05,06,01,37,5.80
2017,05,06,01,38,5.80
2017,05,06,01,39,5.80
2017,05,06,01,40,5.80
2017,05,06,01,41,5.80
2017,05,06,01,42,5.80
2017,05,06,01,43,5.80
2017,05,06,01,44,5.80
2017,05,06,01,45,5.80
2017,05,06,01,46,5.70
2017,05,06,01,47,5.70
2017,05,06,01,48,5.70
2017,05,06,01,49,5.70
2017,05,06,01,50,5.70
2017,05,06,01,51,5.70
2017,05,06,01,52,5.70
2017,05,06,01,53,5.70
2017,05,06,01,54,5.70
2017,05,06,01,55,5.70
2017,05,06,01,56,5.70
2017,05,06,01,57,5.70
2017,05,06,01,58,5.70
2017,05,06,01,59,5.70
2017,05,06,02,00,5.70
2017,05,06,02,01,5.70
2017,05,06,02,02,5.70
2017,05,06,02,03,5.70
2017,05,06,02,04,5.60
2017,05,06,02,05,5.60
2017,05,06,02,06,5.60
2017,05,06,02,07,5.60
2017,05,06,02,08,5.60
2017,05,06,02,09,5.60
2017,05,06,02,10,5.60
2017,05,06,02,11,5.60
2017,05,06,02,12,5.60
2017,05,06,02,13,5.60
2017,05,06,02,14,5.50
2017,05,06,02,15,5.50
2017,05,06,02,16,5.50
2017,05,06,02,17,5.50
2017,05,06,02,18,5.50
2017,05,06,02,19,5.40
2017,05,06,02,20,5.40
2017,05,06,02,21,5.40
2017,05,06,02,22,5.40
2017,05,06,02,23,5.40
2017,05,06,02,24,5.40
2017,05,06,02,25,5.30
2017,05,06,02,26,5.30
2017,05,06,02,27,5.30
2017,05,06,02,28,5.30
2017,05,06,02,29,5.30
2017,05,06,02,30,5.30
2017,05,06,02,31,5.30
2017,05,06,02,32,5.30
2017,05,06,02,33,5.20
2017,05,06,02,34,5.20
2017,05,06,02,35,5.20
2017,05,06,02,36,5.20
2017,05,06,02,37,5.20
2017,05,06,02,38,5.10
2017,05,06,02,39,5.10
2017,05,06,02,40,5.10
2017,05,06,02,41,5.10
2017,05,06,02,42,5.10
2017,05,06,02,43,5.00
2017,05,06,02,44,5.00
2017,05,06,02,45,5.00
2017,05,06,02,46,5.00
2017,05,06,02,47,4.90
2017,05,06,02,48,4.90
2017,05,06,02,49,4.90
2017,05,06,02,50,4.90
2017,05,06,02,51,4.90
2017,05,06,02,52,4.80
2017,05,06,02,53,4.80
2017,05,06,02,54,4.80
2017,05,06,02,55,4.80
2017,05,06,02,56,4.80
2017,05,06,02,57,4.80
2017,05,06,02,58,4.80
2017,05,06,02,59,4.80
2017,05,06,03,00,4.80
2017,05,06,03,01,4.80
2017,05,06,03,02,4.80
2017,05,06,03,03,4.80
2017,05,06,03,04,4.80
2017,05,06,03,05,4.80
2017,05,06,03,06,4.80
2017,05,06,03,07,4.70
2017,05,06,03,08,4.70
2017,05,06,03,09,4.70
2017,05,06,03,10,4.70
2017,05,06,03,11,4.70
2017,05,06,03,12,4.70
2017,05,06,03,13,4.70
2017,05,06,03,14,4.60
2017,05,06,03,15,4.60
2017,05,06,03,16,4.60
2017,05,06,03,17,4.60
2017,05,06,03,18,4.60
2017,05,06,03,19,4.60
2017,05,06,03,20,4.60
2017,05,06,03,21,4.50
2017,05,06,03,22,4.50
2017,05,06,03,23,4.50
2017,05,06,03,24,4.50
2017,05,06,03,25,4.40
2017,05,06,03,26,4.40
2017,05,06,03,27,4.40
2017,05,06,03,28,4.40
2017,05,06,03,29,4.40
2017,05,06,03,30,4.30
2017,05,06,03,31,4.30
2017,05,06,03,32,4.30
2017,05,06,03,33,4.30
2017,05,06,03,34,4.20
2017,05,06,03,35,4.20
2017,05,06,03,36,4.20
2017,05,06,03,37,4.20
2017,05,06,03,38,4.10
2017,05,06,03,39,4.10
2017,05,06,03,40,4.10
2017,05,06,03,41,4.10
2017,05,06,03,42,4.00
2017,05,06,03,43,4.00
2017,05,06,03,44,4.00
2017,05,06,03,45,4.00
2017,05,06,03,46,4.00
2017,05,06,03,47,4.00
2017,05,06,03,48,4.00
2017,05,06,03,49,3.90
2017,05,06,03,50,3.90
2017,05,06,03,51,3.90
2017,05,06,03,52,3.90
2017,05,06,03,53,3.90
2017,05,06,03,54,3.90
2017,05,06,03,55,3.90
2017,05,06,03,56,3.80
2017,05,06,03,57,3.80
2017,05,06,03,58,3.80
2017,05,06,03,59,3.80
2017,05,06,04,00,3.80
2017,05,06,04,01,3.80
2017,05,06,04,02,3.80
2017,05,06,04,03,3.80
2017,05,06,04,04,3.80
2017,05,06,04,05,3.80
2017,05,06,04,06,3.80
2017,05,06,04,07,3.80
2017,05,06,04,08,3.80
2017,05,06,04,09,3.70
2017,05,06,04,10,3.70
2017,05,06,04,11,3.70
2017,05,06,04,12,3.70
2017,05,06,04,13,3.70
2017,05,06,04,14,3.70
2017,05,06,04,15,3.60
2017,05,06,04,16,3.60
2017,05,06,04,17,3.60
2017,05,06,04,18,3.60
2017,05,06,04,19,3.60
2017,05,06,04,20,3.60
2017,05,06,04,21,3.60
2017,05,06,04,22,3.50
2017,05,06,04,23,3.50
2017,05,06,04,24,3.50
2017,05,06,04,25,3.50
2017,05,06,04,26,3.50
2017,05,06,04,27,3.50
2017,05,06,04,28,3.50
2017,05,06,04,29,3.50
2017,05,06,04,30,3.50
2017,05,06,04,31,3.50
2017,05,06,04,32,3.50
2017,05,06,04,33,3.60
2017,05,06,04,34,3.60
2017,05,06,04,35,3.60
2017,05,06,04,36,3.60
2017,05,06,04,37,3.60
2017,05,06,04,38,3.60
2017,05,06,04,39,3.60
2017,05,06,04,40,3.60
2017,05,06,04,41,3.60
2017,05,06,04,42,3.60
2017,05,06,04,43,3.50
2017,05,06,04,44,3.50
2017,05,06,04,45,3.50
2017,05,06,04,46,3.50
2017,05,06,04,47,3.50
2017,05,06,04,48,3.50
2017,05,06,04,49,3.50
2017,05,06,04,50,3.50
2017,05,06,04,51,3.50
2017,05,06,04,52,3.40
2017,05,06,04,53,3.40
2017,05,06,04,54,3.40
2017,05,06,04,55,3.40
2017,05,06,04,56,3.30
2017,05,06,04,57,3.30
2017,05,06,04,58,3.30
2017,05,06,04,59,3.30
2017,05,06,05,00,3.30
2017,05,06,05,01,3.30
2017,05,06,05,02,3.30
2017,05,06,05,03,3.20
2017,05,06,05,04,3.20
2017,05,06,05,05,3.20
2017,05,06,05,06,3.20
2017,05,06,05,07,3.20
2017,05,06,05,08,3.20
2017,05,06,05,09,3.10
2017,05,06,05,10,3.10
2017,05,06,05,11,3.10
2017,05,06,05,12,3.10
2017,05,06,05,13,3.10
2017,05,06,05,14,3.00
2017,05,06,05,15,3.00
2017,05,06,05,16,3.00
2017,05,06,05,17,3.00
2017,05,06,05,18,3.00
2017,05,06,05,19,3.00
2017,05,06,05,20,3.00
2017,05,06,05,21,3.00
2017,05,06,05,22,2.90
2017,05,06,05,23,2.90
2017,05,06,05,24,2.90
2017,05,06,05,25,2.90
2017,05,06,05,26,2.90
2017,05,06,05,27,2.80
2017,05,06,05,28,2.80
2017,05,06,05,29,2.80
2017,05,06,05,30,2.80
2017,05,06,05,31,2.80
2017,05,06,05,32,2.80
2017,05,06,05,33,2.80
2017,05,06,05,34,2.80
2017,05,06,05,35,2.80
2017,05,06,05,36,2.80
2017,05,06,05,37,2.80
2017,05,06,05,38,2.80
2017,05,06,05,39,2.80
2017,05,06,05,40,2.80
2017,05,06,05,41,2.80
2017,05,06,05,42,2.80
2017,05,06,05,43,2.80
2017,05,06,05,44,2.80
2017,05,06,05,45,2.80
2017,05,06,05,46,2.70
2017,05,06,05,47,2.70
2017,05,06,05,48,2.70
2017,05,06,05,49,2.70
2017,05,06,05,50,2.70
2017,05,06,05,51,2.70
2017,05,06,05,52,2.70
2017,05,06,05,53,2.70
2017,05,06,05,54,2.70
2017,05,06,05,55,2.70
2017,05,06,05,56,2.70
2017,05,06,05,57,2.70
2017,05,06,05,58,2.70
2017,05,06,05,59,2.70
2017,05,06,06,00,2.70
2017,05,06,06,01,2.70
2017,05,06,06,02,2.70
2017,05,06,06,03,2.70
2017,05,06,06,04,2.70
2017,05,06,06,05,2.70
2017,05,06,06,06,2.70
2017,05,06,06,07,2.70
2017,05,06,06,08,2.70
2017,05,06,06,09,2.70
2017,05,06,06,10,2.70
2017,05,06,06,11,2.70
2017,05,06,06,12,2.70
2017,05,06,06,13,2.70
2017,05,06,06,14,2.70
2017,05,06,06,15,2.70
2017,05,06,06,16,2.70
2017,05,06,06,17,2.70
2017,05,06,06,18,2.70
2017,05,06,06,19,2.70
2017,05,06,06,20,2.70
2017,05,06,06,21,2.70
2017,05,06,06,22,2.70
2017,05,06,06,23,2.70
2017,05,06,06,24,2.70
2017,05,06,06,25,2.70
2017,05,06,06,26,2.70
2017,05,06,06,27,2.70
2017,05,06,06,28,2.70
2017,05,06,06,29,2.70
2017,05,06,06,30,2.70
2017,05,06,06,31,2.70
2017,05,06,06,32,2.70
2017,05,06,06,33,2.70
2017,05,06,06,34,2.70
2017,05,06,06,35,2.70
2017,05,06,06,36,2.70
2017,05,06,06,37,2.70
2017,05,06,06,38,2.70
2017,05,06,06,39,2.70
2017,05,06,06,40,2.70
2017,05,06,06,41,2.70
2017,05,06,06,42,2.70
2017,05,06,06,43,2.70
2017,05,06,06,44,2.70
2017,05,06,06,45,2.80
2017,05,06,06,46,2.80
2017,05,06,06,47,2.80
2017,05,06,06,48,2.80
2017,05,06,06,49,2.80
2017,05,06,06,50,2.80
2017,05,06,06,51,2.90
2017,05,06,06,52,2.90
2017,05,06,06,53,2.90
2017,05,06,06,54,2.90
2017,05,06,06,55,2.90
2017,05,06,06,56,3.00
2017,05,06,06,57,3.00
2017,05,06,06,58,3.00
2017,05,06,06,59,3.00
2017,05,06,07,00,3.00
2017,05,06,07,01,3.10
2017,05,06,07,02,3.10
2017,05,06,07,03,3.10
2017,05,06,07,04,3.10
2017,05,06,07,05,3.10
2017,05,06,07,06,3.10
2017,05,06,07,07,3.10
2017,05,06,07,08,3.10
2017,05,06,07,09,3.10
2017,05,06,07,10,3.20
2017,05,06,07,11,3.20
2017,05,06,07,12,3.20
2017,05,06,07,13,3.20
2017,05,06,07,14,3.20
2017,05,06,07,15,3.20
2017,05,06,07,16,3.20
2017,05,06,07,17,3.20
2017,05,06,07,18,3.20
2017,05,06,07,19,3.30
2017,05,06,07,20,3.30
2017,05,06,07,21,3.30
2017,05,06,07,22,3.30
2017,05,06,07,23,3.30
2017,05,06,07,24,3.30
2017,05,06,07,25,3.30
2017,05,06,07,26,3.30
2017,05,06,07,27,3.40
2017,05,06,07,28,3.40
2017,05,06,07,29,3.40
2017,05,06,07,30,3.40
2017,05,06,07,31,3.50
2017,05,06,07,32,3.50
2017,05,06,07,33,3.60
2017,05,06,07,34,3.60
2017,05,06,07,35,3.70
2017,05,06,07,36,3.70
2017,05,06,07,37,3.70
2017,05,06,07,38,3.70
2017,05,06,07,39,3.70
2017,05,06,07,40,3.70
2017,05,06,07,41,3.70
2017,05,06,07,42,3.70
2017,05,06,07,43,3.70
2017,05,06,07,44,3.70
2017,05,06,07,45,3.70
2017,05,06,07,46,3.70
2017,05,06,07,47,3.70
2017,05,06,07,48,3.80
2017,05,06,07,49,3.80
2017,05,06,07,50,3.80
2017,05,06,07,51,3.80
2017,05,06,07,52,3.80
2017,05,06,07,53,3.80
2017,05,06,07,54,3.90
2017,05,06,07,55,3.90
2017,05,06,07,56,3.90
2017,05,06,07,57,3.90
2017,05,06,07,58,4.00
2017,05,06,07,59,4.00
2017,05,06,08,00,4.10
2017,05,06,08,01,4.10
2017,05,06,08,02,4.10
2017,05,06,08,03,4.20
2017,05,06,08,04,4.20
2017,05,06,08,05,4.30
2017,05,06,08,06,4.30
2017,05,06,08,07,4.30
2017,05,06,08,08,4.30
2017,05,06,08,09,4.30
2017,05,06,08,10,4.40
2017,05,06,08,11,4.40
2017,05,06,08,12,4.40
2017,05,06,08,13,4.50
2017,05,06,08,14,4.50
2017,05,06,08,15,4.50
2017,05,06,08,16,4.50
2017,05,06,08,17,4.50
2017,05,06,08,18,4.40
2017,05,06,08,19,4.40
2017,05,06,08,20,4.40
2017,05,06,08,21,4.30
2017,05,06,08,22,4.30
2017,05,06,08,23,4.30
2017,05,06,08,24,4.20
2017,05,06,08,25,4.20
2017,05,06,08,26,4.20
2017,05,06,08,27,4.20
2017,05,06,08,28,4.20
2017,05,06,08,29,4.20
2017,05,06,08,30,4.20
2017,05,06,08,31,4.20
2017,05,06,08,32,4.30
2017,05,06,08,33,4.30
2017,05,06,08,34,4.30
2017,05,06,08,35,4.30
2017,05,06,08,36,4.30
2017,05,06,08,37,4.30
2017,05,06,08,38,4.40
2017,05,06,08,39,4.40
2017,05,06,08,40,4.50
2017,05,06,08,41,4.50
2017,05,06,08,42,4.60
2017,05,06,08,43,4.70
2017,05,06,08,44,4.70
2017,05,06,08,45,4.80
2017,05,06,08,46,4.80
2017,05,06,08,47,4.90
2017,05,06,08,48,4.90
2017,05,06,08,49,5.00
2017,05,06,08,50,5.00
2017,05,06,08,51,5.10
2017,05,06,08,52,5.20
2017,05,06,08,53,5.20
2017,05,06,08,54,5.20
2017,05,06,08,55,5.30
2017,05,06,08,56,5.30
2017,05,06,08,57,5.30
2017,05,06,08,58,5.30
2017,05,06,08,59,5.40
2017,05,06,09,00,5.40
2017,05,06,09,01,5.40
2017,05,06,09,02,5.50
2017,05,06,09,03,5.50
2017,05,06,09,04,5.50
2017,05,06,09,05,5.50
2017,05,06,09,06,5.50
2017,05,06,09,07,5.60
2017,05,06,09,08,5.60
2017,05,06,09,09,5.70
2017,05,06,09,10,5.70
2017,05,06,09,11,5.80
2017,05,06,09,12,5.80
2017,05,06,09,13,5.90
2017,05,06,09,14,5.90
2017,05,06,09,15,5.90
2017,05,06,09,16,5.90
2017,05,06,09,17,6.00
2017,05,06,09,18,6.00
2017,05,06,09,19,6.10
2017,05,06,09,20,6.10
2017,05,06,09,21,6.20
2017,05,06,09,22,6.20
2017,05,06,09,23,6.30
2017,05,06,09,24,6.30
2017,05,06,09,25,6.40
2017,05,06,09,26,6.40
2017,05,06,09,27,6.40
2017,05,06,09,28,6.40
2017,05,06,09,29,6.40
2017,05,06,09,30,6.40
2017,05,06,09,31,6.40
2017,05,06,09,32,6.40
2017,05,06,09,33,6.40
2017,05,06,09,34,6.40
2017,05,06,09,35,6.50
2017,05,06,09,36,6.50
2017,05,06,09,37,6.60
2017,05,06,09,38,6.60
2017,05,06,09,39,6.70
2017,05,06,09,40,6.70
2017,05,06,09,41,6.70
2017,05,06,09,42,6.80
2017,05,06,09,43,6.80
2017,05,06,09,44,6.90
2017,05,06,09,45,7.00
2017,05,06,09,46,7.00
2017,05,06,09,47,7.00
2017,05,06,09,48,7.00
2017,05,06,09,49,7.00
2017,05,06,09,50,7.00
2017,05,06,09,51,7.00
2017,05,06,09,52,7.00
2017,05,06,09,53,7.00
2017,05,06,09,54,7.10
2017,05,06,09,55,7.10
2017,05,06,09,56,7.20
2017,05,06,09,57,7.20
2017,05,06,09,58,7.30
2017,05,06,09,59,7.30
2017,05,06,10,00,7.30
2017,05,06,10,01,7.40
2017,05,06,10,02,7.40
2017,05,06,10,03,7.40
2017,05,06,10,04,7.40
2017,05,06,10,05,7.50
2017,05,06,10,06,7.50
2017,05,06,10,07,7.40
2017,05,06,10,08,7.40
2017,05,06,10,09,7.40
2017,05,06,10,10,7.40
2017,05,06,10,11,7.50
2017,05,06,10,12,7.50
2017,05,06,10,13,7.60
2017,05,06,10,14,7.60
2017,05,06,10,15,7.60
2017,05,06,10,16,7.70
2017,05,06,10,17,7.70
2017,05,06,10,18,7.80
2017,05,06,10,19,7.90
2017,05,06,10,20,8.00
2017,05,06,10,21,8.00
2017,05,06,10,22,8.10
2017,05,06,10,23,8.10
2017,05,06,10,24,8.10
2017,05,06,10,25,8.10
2017,05,06,10,26,8.20
2017,05,06,10,27,8.20
2017,05,06,10,28,8.20
2017,05,06,10,29,8.20
2017,05,06,10,30,8.20
2017,05,06,10,31,8.10
2017,05,06,10,32,8.10
2017,05,06,10,33,8.00
2017,05,06,10,34,7.90
2017,05,06,10,35,7.90
2017,05,06,10,36,7.90
2017,05,06,10,37,7.90
2017,05,06,10,38,7.90
2017,05,06,10,39,7.90
2017,05,06,10,40,7.90
2017,05,06,10,41,7.80
2017,05,06,10,42,7.80
2017,05,06,10,43,7.80
2017,05,06,10,44,7.80
2017,05,06,10,45,7.80
2017,05,06,10,46,7.80
2017,05,06,10,47,7.80
2017,05,06,10,48,7.80
2017,05,06,10,49,7.80
2017,05,06,10,50,7.80
2017,05,06,10,51,7.90
2017,05,06,10,52,7.90
2017,05,06,10,53,7.90
2017,05,06,10,54,8.00
2017,05,06,10,55,8.00
2017,05,06,10,56,8.00
2017,05,06,10,57,8.10
2017,05,06,10,58,8.20
2017,05,06,10,59,8.20
2017,05,06,11,00,8.30
2017,05,06,11,01,8.30
2017,05,06,11,02,8.30
2017,05,06,11,03,8.40
2017,05,06,11,04,8.40
2017,05,06,11,05,8.50
2017,05,06,11,06,8.50
2017,05,06,11,07,8.60
2017,05,06,11,08,8.60
2017,05,06,11,09,8.60
2017,05,06,11,10,8.50
2017,05,06,11,11,8.60
2017,05,06,11,12,8.60
2017,05,06,11,13,8.60
2017,05,06,11,14,8.60
2017,05,06,11,15,8.70
2017,05,06,11,16,8.70
2017,05,06,11,17,8.80
2017,05,06,11,18,8.80
2017,05,06,11,19,8.80
2017,05,06,11,20,8.80
2017,05,06,11,21,8.90
2017,05,06,11,22,8.90
2017,05,06,11,23,8.90
2017,05,06,11,24,8.90
2017,05,06,11,25,8.90
2017,05,06,11,26,8.90
2017,05,06,11,27,8.90
2017,05,06,11,28,8.90
2017,05,06,11,29,8.90
2017,05,06,11,30,9.00
2017,05,06,11,31,9.00
2017,05,06,11,32,9.10
2017,05,06,11,33,9.10
2017,05,06,11,34,9.20
2017,05,06,11,35,9.30
2017,05,06,11,36,9.40
2017,05,06,11,37,9.40
2017,05,06,11,38,9.50
2017,05,06,11,39,9.60
2017,05,06,11,40,9.70
2017,05,06,11,41,9.80
2017,05,06,11,42,9.90
2017,05,06,11,43,10.00
2017,05,06,11,44,10.10
2017,05,06,11,45,10.20
2017,05,06,11,46,10.30
2017,05,06,11,47,10.40
2017,05,06,11,48,10.40
2017,05,06,11,49,10.40
2017,05,06,11,50,10.40
2017,05,06,11,51,10.50
2017,05,06,11,52,10.40
2017,05,06,11,53,10.40
2017,05,06,11,54,10.30
2017,05,06,11,55,10.30
2017,05,06,11,56,10.30
2017,05,06,11,57,10.30
2017,05,06,11,58,10.30
2017,05,06,11,59,10.40
2017,05,06,12,00,10.30
2017,05,06,12,01,10.30
2017,05,06,12,02,10.20
2017,05,06,12,03,10.20
2017,05,06,12,04,10.10
2017,05,06,12,05,10.10
2017,05,06,12,06,10.10
2017,05,06,12,07,10.10
2017,05,06,12,08,10.10
2017,05,06,12,09,10.10
2017,05,06,12,10,10.10
2017,05,06,12,11,10.10
2017,05,06,12,12,10.20
2017,05,06,12,13,10.20
2017,05,06,12,14,10.20
2017,05,06,12,15,10.20
2017,05,06,12,16,10.20
2017,05,06,12,17,10.20
2017,05,06,12,18,10.30
2017,05,06,12,19,10.30
2017,05,06,12,20,10.30
2017,05,06,12,21,10.40
2017,05,06,12,22,10.40
2017,05,06,12,23,10.50
2017,05,06,12,24,10.50
2017,05,06,12,25,10.60
2017,05,06,12,26,10.60
2017,05,06,12,27,10.60
2017,05,06,12,28,10.60
2017,05,06,12,29,10.70
2017,05,06,12,30,10.70
2017,05,06,12,31,10.70
2017,05,06,12,32,10.80
2017,05,06,12,33,10.80
2017,05,06,12,34,10.90
2017,05,06,12,35,11.00
2017,05,06,12,36,11.00
2017,05,06,12,37,11.10
2017,05,06,12,38,11.10
2017,05,06,12,39,11.10
2017,05,06,12,40,11.10
2017,05,06,12,41,11.10
2017,05,06,12,42,11.10
2017,05,06,12,43,11.00
2017,05,06,12,44,11.00
2017,05,06,12,45,11.00
2017,05,06,12,46,11.00
2017,05,06,12,47,11.00
2017,05,06,12,48,11.00
2017,05,06,12,49,11.00
2017,05,06,12,50,11.10
2017,05,06,12,51,11.10
2017,05,06,12,52,11.00
2017,05,06,12,53,11.00
2017,05,06,12,54,10.90
2017,05,06,12,55,10.90
2017,05,06,12,56,10.90
2017,05,06,12,57,10.80
2017,05,06,12,58,10.80
2017,05,06,12,59,10.80
2017,05,06,13,00,10.80
2017,05,06,13,01,10.70
2017,05,06,13,02,10.70
2017,05,06,13,03,10.60
2017,05,06,13,04,10.60
2017,05,06,13,05,10.50
2017,05,06,13,06,10.50
2017,05,06,13,07,10.40
2017,05,06,13,08,10.40
2017,05,06,13,09,10.40
2017,05,06,13,10,10.40
2017,05,06,13,11,10.40
2017,05,06,13,12,10.50
2017,05,06,13,13,10.50
2017,05,06,13,14,10.60
2017,05,06,13,15,10.70
2017,05,06,13,16,10.80
2017,05,06,13,17,10.80
2017,05,06,13,18,10.90
2017,05,06,13,19,11.00
2017,05,06,13,20,11.00
2017,05,06,13,21,11.10
2017,05,06,13,22,11.10
2017,05,06,13,23,11.20
2017,05,06,13,24,11.30
2017,05,06,13,25,11.30
2017,05,06,13,26,11.40
2017,05,06,13,27,11.40
2017,05,06,13,28,11.40
2017,05,06,13,29,11.50
2017,05,06,13,30,11.50
2017,05,06,13,31,11.50
2017,05,06,13,32,11.50
2017,05,06,13,33,11.50
2017,05,06,13,34,11.60
2017,05,06,13,35,11.60
2017,05,06,13,36,11.60
2017,05,06,13,37,11.60
2017,05,06,13,38,11.60
2017,05,06,13,39,11.60
2017,05,06,13,40,11.50
2017,05,06,13,41,11.50
2017,05,06,13,42,11.30
2017,05,06,13,43,11.30
2017,05,06,13,44,11.20
2017,05,06,13,45,11.10
2017,05,06,13,46,11.10
2017,05,06,13,47,11.10
2017,05,06,13,48,11.00
2017,05,06,13,49,10.90
2017,05,06,13,50,10.80
2017,05,06,13,51,10.70
2017,05,06,13,52,10.60
2017,05,06,13,53,10.40
2017,05,06,13,54,10.30
2017,05,06,13,55,10.10
2017,05,06,13,56,10.10
2017,05,06,13,57,10.00
2017,05,06,13,58,9.90
2017,05,06,13,59,9.80
2017,05,06,14,00,9.70
2017,05,06,14,01,9.70
2017,05,06,14,02,9.60
2017,05,06,14,03,9.60
2017,05,06,14,04,9.50
2017,05,06,14,05,9.50
2017,05,06,14,06,9.60
2017,05,06,14,07,9.60
2017,05,06,14,08,9.60
2017,05,06,14,09,9.60
2017,05,06,14,10,9.60
2017,05,06,14,11,9.60
2017,05,06,14,12,9.60
2017,05,06,14,13,9.60
2017,05,06,14,14,9.60
2017,05,06,14,15,9.70
2017,05,06,14,16,9.70
2017,05,06,14,17,9.80
2017,05,06,14,18,9.80
2017,05,06,14,19,9.80
2017,05,06,14,20,9.90
2017,05,06,14,21,10.00
2017,05,06,14,22,10.10
2017,05,06,14,23,10.10
2017,05,06,14,24,10.20
2017,05,06,14,25,10.20
2017,05,06,14,26,10.20
2017,05,06,14,27,10.30
2017,05,06,14,28,10.30
2017,05,06,14,29,10.30
2017,05,06,14,30,10.30
2017,05,06,14,31,10.20
2017,05,06,14,32,10.10
2017,05,06,14,33,10.10
2017,05,06,14,34,10.10
2017,05,06,14,35,10.00
2017,05,06,14,36,10.00
2017,05,06,14,37,9.90
2017,05,06,14,38,9.90
2017,05,06,14,39,9.80
2017,05,06,14,40,9.70
2017,05,06,14,41,9.60
2017,05,06,14,42,9.50
2017,05,06,14,43,9.40
2017,05,06,14,44,9.30
2017,05,06,14,45,9.30
2017,05,06,14,46,9.20
2017,05,06,14,47,9.20
2017,05,06,14,48,9.20
2017,05,06,14,49,9.10
2017,05,06,14,50,9.10
2017,05,06,14,51,9.20
2017,05,06,14,52,9.20
2017,05,06,14,53,9.20
2017,05,06,14,54,9.20
2017,05,06,14,55,9.30
2017,05,06,14,56,9.30
2017,05,06,14,57,9.40
2017,05,06,14,58,9.50
2017,05,06,14,59,9.60
2017,05,06,15,00,9.60
2017,05,06,15,01,9.70
2017,05,06,15,02,9.70
2017,05,06,15,03,9.80
2017,05,06,15,04,9.80
2017,05,06,15,05,9.90
2017,05,06,15,06,9.90
2017,05,06,15,07,10.00
2017,05,06,15,08,10.00
2017,05,06,15,09,10.00
2017,05,06,15,10,10.10
2017,05,06,15,11,10.10
2017,05,06,15,12,10.20
2017,05,06,15,13,10.20
2017,05,06,15,14,10.30
2017,05,06,15,15,10.40
2017,05,06,15,16,10.40
2017,05,06,15,17,10.50
2017,05,06,15,18,10.60
2017,05,06,15,19,10.60
2017,05,06,15,20,10.60
2017,05,06,15,21,10.60
2017,05,06,15,22,10.60
2017,05,06,15,23,10.60
2017,05,06,15,24,10.60
2017,05,06,15,25,10.60
2017,05,06,15,26,10.70
2017,05,06,15,27,10.60
2017,05,06,15,28,10.60
2017,05,06,15,29,10.60
2017,05,06,15,30,10.60
2017,05,06,15,31,10.50
2017,05,06,15,32,10.50
2017,05,06,15,33,10.50
2017,05,06,15,34,10.50
2017,05,06,15,35,10.50
2017,05,06,15,36,10.40
2017,05,06,15,37,10.40
2017,05,06,15,38,10.40
2017,05,06,15,39,10.40
2017,05,06,15,40,10.40
2017,05,06,15,41,10.40
2017,05,06,15,42,10.40
2017,05,06,15,43,10.50
2017,05,06,15,44,10.50
2017,05,06,15,45,10.60
2017,05,06,15,46,10.60
2017,05,06,15,47,10.70
2017,05,06,15,48,10.80
2017,05,06,15,49,10.80
2017,05,06,15,50,10.90
2017,05,06,15,51,11.00
2017,05,06,15,52,11.10
2017,05,06,15,53,11.20
2017,05,06,15,54,11.20
2017,05,06,15,55,11.20
2017,05,06,15,56,11.20
2017,05,06,15,57,11.20
2017,05,06,15,58,11.30
2017,05,06,15,59,11.30
2017,05,06,16,00,11.30
2017,05,06,16,01,11.30
2017,05,06,16,02,11.30
2017,05,06,16,03,11.30
2017,05,06,16,04,11.40
2017,05,06,16,05,11.40
2017,05,06,16,06,11.50
2017,05,06,16,07,11.50
2017,05,06,16,08,11.60
2017,05,06,16,09,11.60
2017,05,06,16,10,11.60
2017,05,06,16,11,11.60
2017,05,06,16,12,11.60
2017,05,06,16,13,11.50
2017,05,06,16,14,11.50
2017,05,06,16,15,11.40
2017,05,06,16,16,11.40
2017,05,06,16,17,11.40
2017,05,06,16,18,11.40
2017,05,06,16,19,11.40
2017,05,06,16,20,11.40
2017,05,06,16,21,11.30
2017,05,06,16,22,11.20
2017,05,06,16,23,11.10
2017,05,06,16,24,11.00
2017,05,06,16,25,11.00
2017,05,06,16,26,10.90
2017,05,06,16,27,10.90
2017,05,06,16,28,10.80
2017,05,06,16,29,10.80
2017,05,06,16,30,10.80
2017,05,06,16,31,10.80
2017,05,06,16,32,10.70
2017,05,06,16,33,10.70
2017,05,06,16,34,10.70
2017,05,06,16,35,10.70
2017,05,06,16,36,10.70
2017,05,06,16,37,10.70
2017,05,06,16,38,10.70
2017,05,06,16,39,10.70
2017,05,06,16,40,10.70
2017,05,06,16,41,10.70
2017,05,06,16,42,10.70
2017,05,06,16,43,10.80
2017,05,06,16,44,10.80
2017,05,06,16,45,10.80
2017,05,06,16,46,10.80
2017,05,06,16,47,10.80
2017,05,06,16,48,10.80
2017,05,06,16,49,10.80
2017,05,06,16,50,10.80
2017,05,06,16,51,10.80
2017,05,06,16,52,10.80
2017,05,06,16,53,10.80
2017,05,06,16,54,10.80
2017,05,06,16,55,10.80
2017,05,06,16,56,10.80
2017,05,06,16,57,10.80
2017,05,06,16,58,10.80
2017,05,06,16,59,10.80
2017,05,06,17,00,10.90
2017,05,06,17,01,10.90
2017,05,06,17,02,10.90
2017,05,06,17,03,10.90
2017,05,06,17,04,11.00
2017,05,06,17,05,11.00
2017,05,06,17,06,11.00
2017,05,06,17,07,11.00
2017,05,06,17,08,10.90
2017,05,06,17,09,10.90
2017,05,06,17,10,10.90
2017,05,06,17,11,10.90
2017,05,06,17,12,10.90
2017,05,06,17,13,10.90
2017,05,06,17,14,10.90
2017,05,06,17,15,10.90
2017,05,06,17,16,10.90
2017,05,06,17,17,10.80
2017,05,06,17,18,10.80
2017,05,06,17,19,10.80
2017,05,06,17,20,10.80
2017,05,06,17,21,10.80
2017,05,06,17,22,10.80
2017,05,06,17,23,10.80
2017,05,06,17,24,10.80
2017,05,06,17,25,10.90
2017,05,06,17,26,10.90
2017,05,06,17,27,10.90
2017,05,06,17,28,10.90
2017,05,06,17,29,10.90
2017,05,06,17,30,10.90
2017,05,06,17,31,10.90
2017,05,06,17,32,10.90
2017,05,06,17,33,10.90
2017,05,06,17,34,10.90
2017,05,06,17,35,10.90
2017,05,06,17,36,10.90
2017,05,06,17,37,10.80
2017,05,06,17,38,10.80
2017,05,06,17,39,10.80
2017,05,06,17,40,10.80
2017,05,06,17,41,10.80
2017,05,06,17,42,10.80
2017,05,06,17,43,10.80
2017,05,06,17,44,10.90
2017,05,06,17,45,10.90
2017,05,06,17,46,10.90
2017,05,06,17,47,10.90
2017,05,06,17,48,10.90
2017,05,06,17,49,10.90
2017,05,06,17,50,10.90
2017,05,06,17,51,10.80
2017,05,06,17,52,10.80